| time (UTC) | temp F | wind direction | speed MPH | gust MPH | rain 1hr in | rain 24hr in | rain mn in | humidity % | barometer mb |
| 20260508000604 | 51 | 115 | 3.0 | 8.0 | 0.00 | 0.00 | 0.00 | 3 | 1013.3 |
| 20260508000105 | 51 | 133 | 2.0 | 6.0 | 0.00 | 0.00 | 0.00 | 3 | 1013.4 |
| 20260507230604 | 51 | 114 | 2.0 | 3.0 | 0.00 | 0.00 | 0.00 | 3 | 1013.4 |
| 20260507230105 | 51 | 115 | 2.0 | 8.0 | 0.00 | 0.00 | 0.00 | 3 | 1013.4 |
| 20260507220105 | 51 | 120 | 1.0 | 5.0 | 0.00 | 0.00 | 0.00 | 3 | 1013.6 |
| 20260507210603 | 51 | 126 | 1.0 | 3.0 | 0.00 | 0.00 | 0.00 | 3 | 1013.7 |
| 20260507210105 | 51 | 126 | 1.0 | 6.0 | 0.00 | 0.00 | 0.00 | 3 | 1013.7 |
| 20260507200604 | 51 | 141 | 1.0 | 3.0 | 0.00 | 0.00 | 0.00 | 3 | 1013.2 |
| 20260507200105 | 51 | 141 | 1.0 | 3.0 | 0.00 | 0.00 | 0.00 | 3 | 1013.1 |
| 20260507190604 | 51 | 163 | 0.0 | 0.0 | 0.00 | 0.00 | 0.00 | 3 | 1012.9 |
| 20260507190109 | 51 | 163 | 0.0 | 7.0 | 0.00 | 0.00 | 0.00 | 3 | 1012.8 |
| 20260507170105 | 51 | 180 | 3.0 | 12.0 | 0.00 | 0.00 | 0.00 | 3 | 1012.6 |
| 20260507160604 | 51 | 169 | 5.0 | 10.0 | 0.00 | 0.00 | 0.00 | 3 | 1012.7 |
| 20260507150604 | 51 | 141 | 3.0 | 9.0 | 0.00 | 0.00 | 0.00 | 3 | 1013.0 |
| 20260507150109 | 51 | 150 | 6.0 | 15.0 | 0.00 | 0.00 | 0.00 | 3 | 1013.0 |
| 20260507140604 | 51 | 126 | 5.0 | 12.0 | 0.00 | 0.00 | 0.00 | 3 | 1013.4 |
| 20260507140106 | 51 | 147 | 6.0 | 15.0 | 0.00 | 0.00 | 0.00 | 3 | 1013.4 |
| 20260507130604 | 51 | 136 | 7.0 | 12.0 | 0.00 | 0.00 | 0.00 | 3 | 1013.4 |
| 20260507130106 | 51 | 140 | 5.0 | 16.0 | 0.00 | 0.00 | 0.00 | 3 | 1013.5 |
| 20260507120604 | 51 | 126 | 3.0 | 12.0 | 0.00 | 0.00 | 0.00 | 3 | 1013.5 |
| 20260507120106 | 51 | 122 | 6.0 | 13.0 | 0.00 | 0.00 | 0.00 | 3 | 1013.6 |
| 20260507110604 | 51 | 184 | 4.0 | 8.0 | 0.00 | 0.00 | 0.00 | 3 | 1013.7 |
| 20260507110105 | 51 | 155 | 5.0 | 12.0 | 0.00 | 0.00 | 0.00 | 3 | 1013.8 |
| 20260507100604 | 51 | 151 | 5.0 | 12.0 | 0.00 | 0.00 | 0.00 | 3 | 1013.8 |
| 20260507100106 | 51 | 127 | 6.0 | 14.0 | 0.00 | 0.00 | 0.00 | 3 | 1013.9 |
| 20260507090602 | 51 | 133 | 6.0 | 12.0 | 0.00 | 0.00 | 0.00 | 3 | 1013.8 |
| 20260507080603 | 51 | 140 | 6.0 | 10.0 | 0.00 | 0.00 | 0.00 | 3 | 1013.9 |
| 20260507080110 | 51 | 156 | 3.0 | 9.0 | 0.00 | 0.00 | 0.00 | 3 | 1013.8 |
| 20260507070603 | 51 | 116 | 2.0 | 7.0 | 0.00 | 0.00 | 0.00 | 3 | 1013.3 |
| 20260507060603 | 51 | 136 | 2.0 | 5.0 | 0.00 | 0.00 | 0.00 | 3 | 1013.4 |
| 20260507060105 | 51 | 136 | 1.0 | 3.0 | 0.00 | 0.00 | 0.00 | 3 | 1013.3 |
| 20260507050603 | 51 | 186 | 2.0 | 3.0 | 0.00 | 0.00 | 0.00 | 3 | 1013.1 |
| 20260507050104 | 51 | 143 | 1.0 | 7.0 | 0.00 | 0.00 | 0.00 | 3 | 1013.0 |
| 20260507040603 | 51 | 143 | 3.0 | 5.0 | 0.00 | 0.00 | 0.00 | 3 | 1013.6 |
| 20260507030603 | 51 | 188 | 2.0 | 3.0 | 0.00 | 0.00 | 0.00 | 3 | 1014.2 |
| 20260507030104 | 51 | 188 | 2.0 | 5.0 | 0.00 | 0.00 | 0.00 | 3 | 1014.2 |
| 20260507010604 | 51 | 191 | 2.0 | 3.0 | 0.00 | 0.00 | 0.00 | 3 | 1014.2 |
| 20260507010105 | 51 | 191 | 1.0 | 3.0 | 0.00 | 0.00 | 0.00 | 3 | 1014.2 |